Temperature
16 16 17 17 17 17 17 17 17 17 18 18 18 18 18 18 18 18 18 18 18 18 18 18 18 18 18 18 18 18 18 18 18 18 18 18 18 18 18 18 18 17 17
16 16 16 16 17 17 17 17 17 17 18 18 18 18 18 18 18 19 18 18 18 18 18 18 18 18 18 18 18 18 18 18 18 18 18 18 18 18 18 18 17 17 17
15 15 15 16 16 16 17 17 17 17 17 17 18 18 18 18 18 19 18 18 18 18 18 18 18 18 18 18 18 18 18 18 18 18 18 18 18 18 18 17 17 17 17
15 15 15 15 16 16 16 16 17 17 17 17 17 18 18 18 18 19 18 18 18 18 18 18 18 18 18 18 18 18 18 18 17 17 17 18 18 17 17 17 17 17 17
14 14 15 15 15 15 16 16 16 16 17 17 17 17 18 18 18 18 18 18 18 18 18 18 18 18 18 18 18 18 18 18 17 17 17 17 17 17 17 17 17 17 17
14 14 14 14 15 15 15 15 16 16 16 16 17 17 17 18 18 18 18 19 18 18 18 18 18 18 18 18 18 18 18 18 17 17 17 17 17 17 17 17 17 17 17
13 14 14 14 14 15 15 15 15 16 16 16 16 16 17 17 17 18 18 19 19 18 18 18 18 18 18 18 18 18 18 18 18 17 17 17 17 17 17 17 17 17 17
13 13 13 14 14 14 14 15 15 15 16 16 16 16 16 17 17 18 18 18 19 19 18 18 18 18 18 18 18 18 18 18 18 17 17 17 17 17 17 17 17 17 16
13 13 13 13 14 14 14 14 15 15 15 16 16 16 16 17 17 18 18 18 18 18 19 18 18 18 18 18 18 18 18 18 18 17 17 17 17 17 17 17 17 16 16
13 13 13 13 13 13 14 14 14 14 15 15 15 16 16 16 17 17 17 18 18 18 18 18 18 18 18 18 18 18 18 18 18 17 17 17 17 17 17 17 16 16 16
12 12 13 13 13 13 13 14 14 14 14 15 15 15 15 16 16 16 17 17 18 18 18 18 18 18 18 18 18 18 18 18 18 17 17 17 17 17 17 16 16 16 16
12 12 12 12 13 13 13 13 14 14 14 14 15 15 15 15 16 16 16 17 17 18 18 18 18 18 18 18 18 18 18 18 18 18 17 17 17 17 16 16 16 16 16
12 12 12 12 12 12 13 13 13 13 14 14 14 14 15 15 15 15 16 16 16 17 17 17 18 18 18 18 18 18 18 18 18 18 17 17 17 17 16 16 16 16 16
12 12 12 12 12 12 12 13 13 13 13 14 14 14 14 15 15 15 15 15 16 16 17 17 17 18 18 18 18 17 18 18 18 17 17 17 17 17 16 16 16 16 16
11 12 12 12 12 12 12 12 13 13 13 13 14 14 14 14 15 15 15 15 15 15 16 17 17 17 17 17 17 17 17 17 17 17 17 17 17 17 16 16 16 16 16
11 11 12 12 12 12 12 12 12 12 13 13 13 13 14 14 14 15 15 15 15 15 15 16 17 17 17 17 17 17 17 17 17 17 17 17 17 17 16 16 16 16 16
11 11 11 11 11 11 11 12 12 12 12 13 13 13 13 14 14 14 14 15 15 15 15 15 16 16 16 16 16 16 17 17 17 17 17 17 17 16 16 16 16 16 15
11 11 11 11 11 11 11 11 11 12 12 12 12 13 13 13 13 14 14 14 14 15 15 15 15 15 16 16 16 16 16 16 16 16 16 16 16 16 16 16 16 15 15
11 11 11 11 11 11 11 11 11 11 12 12 12 12 13 13 13 13 14 14 14 14 14 14 15 15 15 15 15 15 16 16 16 16 16 16 16 16 16 16 15 15 15
11 11 11 11 11 11 11 11 11 11 11 11 12 12 12 12 13 13 13 14 14 14 14 14 14 14 15 15 15 15 15 15 15 15 15 15 15 15 15 15 15 15 15
11 11 11 11 11 11 11 11 11 11 11 11 11 11 12 12 12 13 13 13 13 14 14 14 14 14 14 14 14 15 15 15 15 15 15 15 15 15 15 15 15 14 14
11 11 11 11 11 11 11 11 11 11 11 11 11 11 12 12 12 12 13 13 13 13 13 13 13 13 14 14 14 14 14 14 14 14 14 14 15 15 14 15 14 14 14
11 11 11 11 11 11 11 11 11 11 11 11 11 11 11 12 12 12 12 13 13 13 13 13 13 13 14 14 14 14 14 14 14 14 14 14 14 14 14 14 14 14 14
11 11 11 11 11 11 11 11 11 11 11 11 11 11 11 11 12 12 12 12 13 13 13 13 13 13 13 14 14 14 14 14 14 14 14 13 13 13 13 13 13 13 13
12 12 11 11 11 11 11 11 11 11 11 11 11 11 11 11 12 12 12 12 12 13 13 13 13 13 13 13 13 13 13 13 13 13 13 13 13 13 13 13 13 13 13
12 12 12 12 11 11 11 11 11 11 11 11 11 11 11 11 11 11 12 12 12 12 12 13 13 13 13 13 13 13 13 13 13 12 12 13 13 12 12 12 12 12 12
Wind_Speed
3 3 2 3 4 5 4 3 3 4 5 7 8 7 5 6 7 9 11 16 15 13 12 11 9 9 8 7 7 8 9 9 10 11 12 12 12 12 12 11 10 10 10
3 3 4 4 4 5 5 4 5 6 5 5 8 6 4 4 5 8 13 15 16 15 14 13 12 11 10 9 9 9 9 10 11 12 12 12 12 11 11 11 10 9 9
3 3 4 4 4 6 6 5 6 5 6 6 7 6 4 4 4 5 11 13 14 15 16 15 14 12 12 11 10 10 10 11 12 12 12 12 11 11 11 10 10 9 8
6 3 3 3 4 5 4 5 5 6 6 5 5 5 5 5 5 5 6 11 13 14 16 17 16 14 13 13 12 12 12 12 12 13 12 12 12 11 11 10 9 9 8
10 5 3 3 3 3 4 5 5 5 5 6 6 6 5 5 5 6 5 7 11 15 15 18 19 17 16 15 14 14 14 14 14 14 13 13 12 11 11 10 10 9 8
8 6 5 4 3 3 3 4 5 5 5 5 6 6 5 5 5 5 5 4 6 12 16 17 16 16 17 17 16 16 16 15 15 15 14 14 13 12 11 11 10 9 8
7 5 5 5 4 3 4 5 4 5 4 4 3 4 4 5 6 6 5 4 4 5 11 16 16 15 15 18 18 17 17 17 17 16 16 15 14 13 12 12 11 9 8
6 6 6 5 4 4 5 5 4 3 3 4 4 3 3 4 5 7 6 6 5 4 5 11 15 16 16 16 18 20 19 19 18 17 17 16 15 14 13 12 11 10 9
5 4 5 6 5 4 4 5 5 5 4 4 5 4 3 5 3 4 7 7 6 5 5 5 8 13 18 17 18 21 22 21 19 19 18 17 17 16 15 14 12 11 10
4 4 4 5 5 4 5 5 5 4 4 4 4 5 4 2 2 2 3 5 6 6 6 5 6 8 14 17 19 23 25 23 21 20 19 18 18 17 16 15 13 12 11
4 4 4 4 5 4 4 4 5 5 4 5 4 3 4 4 4 3 3 3 4 5 6 6 5 4 8 13 17 23 27 26 23 21 20 19 18 18 17 16 14 13 12
4 5 5 5 5 4 5 5 5 5 5 5 5 4 4 3 4 4 4 3 4 4 5 5 5 5 6 10 17 25 28 27 25 22 20 19 19 19 18 17 16 15 14
4 6 6 6 5 4 5 5 5 5 5 6 6 5 5 5 4 4 4 4 3 3 3 4 6 5 6 9 12 24 27 27 26 24 22 20 19 19 19 18 17 16 15
4 6 6 6 6 5 5 4 4 5 5 5 6 5 5 5 5 5 5 4 3 4 4 5 3 5 5 8 12 23 21 27 26 25 23 22 20 20 19 18 18 17 16
5 6 7 7 6 6 5 4 4 5 5 5 5 6 5 5 5 5 5 5 5 5 6 6 5 4 4 6 13 17 16 24 26 25 24 23 22 21 20 19 18 17 16
6 7 7 6 6 5 5 4 4 5 5 5 5 6 6 5 5 5 5 5 6 6 5 5 6 4 4 4 13 15 15 23 26 25 25 24 23 22 21 20 19 18 17
6 7 7 7 6 6 6 5 5 6 6 6 5 5 6 6 5 5 5 5 6 5 6 4 4 4 5 5 6 8 11 14 17 23 24 24 23 22 22 21 21 20 19
6 6 6 6 7 7 6 6 6 7 6 6 6 6 6 5 5 5 5 6 6 6 6 6 4 4 6 5 5 6 6 10 13 20 23 24 23 23 23 22 22 21 20
7 7 6 6 6 6 6 6 7 7 7 6 6 6 5 5 4 3 4 5 5 6 5 5 4 4 4 4 4 4 5 5 9 15 20 22 23 23 23 23 22 22 21
6 7 6 6 6 6 6 6 8 8 8 7 6 6 5 4 4 4 4 4 5 5 5 5 4 4 4 4 5 5 5 5 6 8 12 15 19 21 22 22 23 23 22
7 6 6 6 6 6 5 6 7 9 8 8 7 6 5 5 6 4 4 4 4 4 4 5 5 4 5 5 6 5 6 5 5 5 7 8 9 10 14 19 21 22 23
6 5 6 6 6 5 5 7 7 7 8 8 7 7 6 5 6 7 7 7 6 6 5 5 5 6 7 6 6 7 7 6 5 5 7 7 7 9 9 13 19 23 23
5 5 6 6 5 4 5 7 9 7 8 8 7 6 6 5 5 4 6 7 7 10 10 7 7 7 6 6 7 8 8 6 5 6 6 5 6 7 7 14 21 23 23
5 5 5 6 5 5 4 5 9 8 8 7 6 5 5 5 4 4 5 5 5 6 7 7 7 7 6 5 7 7 7 5 4 4 4 5 5 4 5 9 20 22 23
5 5 5 5 6 4 1 3 6 6 7 7 6 5 5 4 5 6 5 6 6 5 5 6 7 7 7 8 7 6 7 7 5 4 3 4 5 4 4 5 12 20 21
5 6 6 5 6 4 2 2 4 4 6 6 6 5 4 5 6 6 5 5 6 4 3 3 4 6 6 8 11 9 8 8 5 4 4 5 5 5 4 2 5 11 15
Wind_Direction
241 250 243 234 230 216 208 213 228 240 258 273 272 258 241 218 198 169 163 167 168 174 180 183 182 179 178 174 168 164 160 156 150 144 142 141 138 134 132 132 130 128 124
229 235 243 237 230 224 216 211 224 235 242 263 270 271 281 256 216 168 163 173 175 179 185 188 186 184 183 181 175 171 168 163 157 151 148 145 144 142 141 140 138 136 132
277 260 247 239 233 227 220 214 218 230 237 247 260 268 271 268 254 200 172 174 179 185 188 190 189 188 188 188 181 176 173 168 163 159 156 153 152 152 150 148 145 144 139
312 294 274 258 240 228 215 216 216 222 230 234 248 254 262 270 258 247 193 179 178 186 193 194 191 190 190 190 185 183 179 173 171 168 164 163 162 161 160 159 155 152 148
334 322 297 280 269 242 227 232 219 214 225 227 233 240 242 252 258 252 227 203 189 180 185 194 193 191 191 191 191 189 184 180 179 177 174 172 171 171 169 166 164 163 161
330 329 310 296 285 266 249 241 238 224 220 220 230 238 233 242 252 253 247 226 206 187 181 182 187 192 193 192 193 193 189 187 186 185 182 180 179 177 176 175 172 172 172
335 320 311 315 310 282 263 251 241 235 228 213 214 240 252 244 245 246 249 241 222 198 177 174 180 184 191 195 194 194 193 192 191 191 189 187 185 183 183 182 182 183 184
337 332 329 314 305 299 285 266 248 235 240 207 196 190 230 245 242 235 236 237 229 204 188 183 185 181 182 185 195 195 194 194 194 195 194 192 189 189 189 190 190 191 191
330 330 324 319 308 302 289 279 259 236 238 232 206 192 192 215 226 237 231 233 229 217 206 193 199 190 182 180 186 194 193 193 195 197 197 196 194 194 194 193 194 195 193
336 324 318 318 310 301 293 287 275 250 228 240 235 229 235 227 190 228 249 233 228 224 218 217 213 200 188 179 181 186 191 192 195 198 199 198 197 197 196 197 198 197 194
327 335 333 320 313 305 302 298 299 279 243 229 229 224 235 244 234 213 236 243 238 231 219 218 223 219 201 178 175 182 187 191 193 196 199 199 199 199 198 198 199 198 195
330 351 343 333 317 317 310 299 287 279 264 247 236 224 214 212 213 211 222 228 233 243 232 223 217 215 211 187 181 180 184 188 191 193 197 199 200 199 199 200 199 198 195
340 347 346 329 320 312 307 304 294 281 268 257 242 233 226 226 228 221 219 222 228 244 247 240 225 207 209 194 182 177 183 186 189 191 194 197 197 198 199 199 198 197 195
330 333 334 319 314 313 316 315 304 293 283 270 262 247 233 232 226 222 215 205 216 233 234 241 241 220 205 195 182 175 183 186 189 191 193 194 195 196 196 198 199 197 195
324 334 320 317 319 323 321 316 300 299 301 282 267 260 245 236 234 228 224 208 199 214 229 227 227 233 217 199 176 182 181 189 189 191 192 192 192 192 194 195 196 195 192
319 316 318 320 321 329 331 326 311 300 296 285 270 258 250 236 232 230 226 223 215 213 226 220 217 216 219 205 186 191 188 189 191 191 191 191 191 192 193 192 190 188 186
325 326 330 332 337 338 334 332 322 317 309 300 293 281 268 249 233 232 228 223 224 218 230 240 221 213 213 208 192 195 185 180 191 192 191 191 191 191 190 188 186 184 182
325 325 331 337 340 339 336 333 329 326 314 306 301 298 286 273 245 231 224 223 222 218 217 231 230 213 216 206 193 197 192 183 185 193 192 190 189 189 188 186 183 182 180
331 330 331 338 337 335 337 338 336 325 319 312 309 305 300 294 272 247 231 225 225 228 217 220 225 213 213 200 197 205 201 188 186 190 191 190 188 187 185 184 182 180 179
334 328 336 338 334 333 338 352 344 330 323 317 310 303 298 298 288 276 259 245 233 227 222 220 222 210 204 193 182 194 204 195 189 178 182 184 185 183 182 181 180 178 176
328 327 332 330 331 330 353 359 339 327 323 318 314 308 299 294 291 277 266 258 247 233 225 220 224 215 207 188 192 187 196 187 192 174 167 173 171 176 180 180 178 176 174
306 316 318 318 324 334 343 340 331 318 312 309 310 307 298 284 283 280 268 258 246 240 232 223 224 222 218 208 193 185 182 184 196 180 170 175 173 177 176 179 178 175 173
309 318 313 314 317 329 322 329 332 319 299 299 301 302 304 306 310 300 292 276 262 250 237 227 227 226 214 203 193 191 190 187 187 169 161 174 171 177 172 176 174 173 172
306 305 303 310 315 316 319 329 332 312 301 301 302 300 302 310 328 333 313 294 275 255 240 232 231 230 218 201 192 193 186 170 143 157 156 166 163 157 148 160 170 169 169
283 287 290 296 300 300 306 322 333 311 308 313 326 328 325 326 328 332 308 292 287 274 251 235 225 219 210 200 183 169 174 173 171 172 157 147 147 130 133 155 164 165 164
271 277 278 275 279 279 233 273 328 311 316 321 323 328 347 342 329 323 307 295 289 283 270 247 225 215 208 199 192 188 186 182 167 166 169 150 147 138 131 132 154 163 161
Height
1519 1519 1520 1520 1521 1522 1524 1526 1528 1529 1530 1531 1532 1534 1536 1538 1539 1540 1541 1543 1544 1545 1546 1547 1548 1549 1551 1552 1554 1555 1557 1559 1560 1562 1564 1565 1567 1569 1570 1571 1572 1573 1574
1516 1516 1516 1517 1517 1518 1520 1522 1524 1526 1527 1528 1529 1531 1533 1535 1537 1538 1539 1541 1542 1543 1544 1546 1547 1548 1549 1551 1553 1555 1556 1558 1560 1562 1564 1565 1567 1568 1570 1571 1573 1574 1575
1514 1514 1514 1514 1514 1515 1517 1518 1520 1522 1523 1524 1526 1528 1530 1532 1534 1536 1537 1538 1539 1541 1542 1544 1545 1546 1548 1550 1552 1553 1556 1557 1559 1561 1563 1565 1566 1568 1570 1571 1572 1574 1575
1512 1511 1511 1511 1511 1512 1513 1515 1516 1518 1519 1521 1522 1524 1526 1528 1530 1533 1534 1535 1536 1538 1540 1542 1543 1545 1546 1548 1550 1552 1554 1556 1558 1560 1562 1564 1566 1568 1569 1571 1572 1573 1574
1509 1508 1508 1508 1509 1509 1510 1511 1513 1514 1516 1517 1519 1521 1522 1524 1527 1529 1531 1532 1534 1535 1537 1539 1541 1542 1544 1546 1548 1550 1552 1554 1557 1559 1561 1563 1565 1567 1568 1570 1571 1572 1573
1506 1506 1505 1505 1506 1506 1507 1508 1509 1511 1512 1514 1516 1517 1519 1520 1522 1525 1527 1529 1531 1532 1533 1536 1538 1540 1542 1544 1546 1548 1550 1552 1555 1557 1559 1561 1563 1565 1567 1569 1570 1571 1572
1504 1503 1503 1502 1503 1503 1504 1505 1506 1507 1508 1510 1512 1513 1515 1517 1518 1520 1523 1525 1527 1529 1531 1532 1534 1537 1539 1541 1543 1545 1548 1550 1552 1555 1557 1559 1561 1563 1565 1567 1569 1570 1571
1502 1501 1500 1500 1500 1500 1501 1502 1502 1503 1505 1507 1508 1510 1512 1514 1514 1516 1518 1521 1523 1525 1527 1529 1531 1533 1535 1538 1540 1542 1545 1547 1550 1552 1555 1557 1559 1561 1563 1565 1567 1568 1569
1500 1499 1498 1497 1497 1497 1498 1498 1499 1500 1501 1503 1505 1507 1508 1508 1510 1512 1513 1516 1518 1521 1523 1526 1528 1530 1531 1534 1537 1539 1542 1544 1547 1549 1552 1554 1557 1559 1561 1563 1565 1566 1568
1499 1498 1496 1495 1495 1495 1495 1495 1496 1497 1498 1499 1501 1503 1505 1506 1508 1508 1509 1511 1514 1516 1519 1521 1524 1527 1529 1530 1533 1536 1538 1541 1544 1546 1549 1551 1554 1556 1559 1561 1562 1564 1565
1498 1497 1495 1494 1493 1493 1492 1492 1493 1494 1495 1496 1497 1498 1500 1502 1504 1505 1505 1507 1509 1511 1514 1516 1519 1522 1525 1527 1529 1531 1535 1537 1540 1543 1545 1548 1551 1553 1556 1558 1560 1561 1563
1498 1496 1494 1492 1491 1490 1490 1489 1489 1490 1491 1492 1493 1494 1496 1497 1499 1501 1501 1502 1504 1506 1509 1511 1514 1517 1520 1522 1524 1527 1531 1534 1536 1539 1542 1545 1547 1550 1552 1555 1557 1559 1560
1497 1494 1492 1491 1489 1488 1487 1487 1486 1487 1487 1488 1489 1490 1491 1493 1495 1496 1498 1499 1500 1502 1504 1506 1509 1512 1514 1517 1520 1523 1526 1529 1532 1535 1538 1541 1544 1546 1549 1551 1554 1556 1557
1496 1493 1491 1489 1488 1487 1486 1485 1484 1484 1484 1484 1485 1486 1487 1488 1490 1491 1493 1495 1496 1497 1498 1500 1503 1506 1508 1511 1514 1518 1521 1524 1528 1531 1534 1537 1540 1542 1545 1548 1550 1552 1554
1494 1492 1490 1488 1487 1485 1484 1483 1482 1481 1481 1481 1481 1482 1482 1483 1485 1486 1488 1490 1492 1492 1493 1495 1497 1500 1503 1506 1509 1512 1516 1519 1523 1526 1529 1532 1535 1538 1541 1544 1546 1549 1551
1493 1491 1489 1487 1486 1484 1483 1481 1480 1479 1478 1478 1478 1478 1478 1479 1480 1482 1483 1485 1487 1489 1489 1490 1492 1495 1498 1500 1503 1506 1510 1513 1517 1521 1524 1527 1530 1533 1536 1539 1542 1545 1547
1492 1490 1488 1486 1485 1483 1481 1479 1478 1477 1476 1475 1475 1475 1474 1475 1475 1476 1478 1480 1481 1483 1484 1486 1488 1490 1492 1495 1497 1501 1505 1507 1511 1515 1518 1522 1525 1528 1532 1535 1538 1540 1543
1491 1489 1487 1485 1483 1481 1479 1477 1476 1474 1473 1472 1472 1471 1471 1471 1472 1472 1473 1474 1476 1478 1480 1481 1482 1485 1487 1490 1493 1495 1499 1502 1505 1509 1512 1516 1520 1523 1527 1530 1533 1536 1539
1490 1488 1486 1484 1481 1479 1477 1475 1474 1472 1471 1470 1469 1468 1468 1468 1468 1468 1469 1470 1471 1473 1474 1476 1477 1480 1482 1484 1487 1490 1493 1496 1499 1502 1506 1510 1514 1518 1521 1525 1528 1531 1534
1488 1486 1484 1482 1480 1477 1475 1473 1471 1469 1468 1467 1466 1465 1465 1464 1464 1465 1465 1466 1467 1468 1469 1471 1472 1474 1476 1479 1482 1484 1487 1490 1493 1496 1500 1504 1508 1512 1515 1519 1522 1525 1528
1487 1485 1483 1480 1478 1476 1473 1471 1469 1467 1465 1464 1463 1463 1462 1461 1461 1461 1461 1462 1462 1463 1464 1466 1467 1469 1470 1473 1475 1477 1481 1484 1487 1490 1493 1497 1501 1505 1509 1513 1516 1519 1523
1486 1484 1481 1479 1476 1474 1472 1469 1467 1465 1463 1462 1461 1460 1459 1458 1458 1458 1458 1458 1459 1459 1460 1461 1462 1463 1464 1467 1469 1472 1475 1478 1480 1484 1487 1491 1494 1498 1502 1506 1509 1513 1517
1485 1482 1480 1478 1475 1472 1470 1468 1465 1463 1461 1460 1458 1457 1456 1456 1455 1454 1454 1454 1454 1455 1456 1456 1457 1458 1459 1461 1464 1466 1469 1472 1474 1477 1481 1484 1488 1491 1495 1499 1504 1507 1511
1483 1481 1479 1476 1474 1471 1468 1466 1464 1461 1459 1458 1456 1455 1454 1453 1452 1451 1450 1450 1450 1450 1451 1451 1452 1453 1455 1456 1458 1461 1463 1466 1469 1472 1476 1478 1482 1486 1490 1493 1497 1501 1506
1482 1480 1477 1475 1472 1470 1467 1465 1462 1460 1458 1456 1455 1453 1451 1450 1449 1448 1447 1446 1446 1446 1446 1447 1447 1449 1450 1452 1453 1455 1458 1461 1463 1466 1470 1473 1477 1481 1485 1489 1492 1497 1501
1481 1478 1476 1474 1471 1469 1466 1464 1461 1458 1456 1454 1452 1451 1449 1448 1447 1445 1444 1443 1442 1442 1442 1443 1443 1444 1445 1447 1448 1450 1453 1455 1458 1461 1464 1468 1472 1476 1481 1484 1488 1492 1496